EW7239 Weather Reports


time (UTC)temp
C
wind
direction
speed
KPH
gust
KPH
rain 1hr
cm
rain 24hr
cm
rain mn
cm
humidity
%
barometer
mb
20260506143509 13 221 0.0 4.8 0.00 0.00 0.00 80 1018.9
20260506143006 13 221 0.0 3.2 0.00 0.00 0.00 81 1018.9
20260506142506 13 221 1.6 4.8 0.00 0.00 0.00 81 1018.9
20260506142007 13 221 0.0 4.8 0.00 0.00 0.00 82 1018.9
20260506141507 12 221 0.0 0.0 0.00 0.00 0.00 82 1018.8
20260506141001 12 221 0.0 0.0 0.00 0.00 0.00 83 1018.9
20260506140458 12 221 0.0 0.0 0.00 0.00 0.00 84 1018.8
20260506135959 12 221 0.0 0.0 0.00 0.00 0.00 83 1018.8
20260506135452 12 221 0.0 0.0 0.00 0.00 0.00 84 1018.8
20260506134953 12 221 0.0 0.0 0.00 0.00 0.00 84 1018.8
20260506134724 11 221 0.0 0.0 0.00 0.00 0.00 85 1018.7
20260506133953 11 221 0.0 0.0 0.00 0.00 0.00 85 1018.7
20260506133452 11 223 0.0 0.0 0.00 0.00 0.00 85 1018.6
20260506132953 11 223 0.0 0.0 0.00 0.00 0.00 85 1018.5
20260506132722 11 223 0.0 0.0 0.00 0.00 0.00 85 1018.5
20260506131949 11 223 0.0 0.0 0.00 0.00 0.00 85 1018.4
20260506131449 11 223 0.0 0.0 0.00 0.00 0.00 85 1018.3
20260506130944 11 223 0.0 0.0 0.00 0.00 0.00 85 1018.3
20260506130445 11 223 0.0 0.0 0.00 0.00 0.00 85 1018.2
20260506125946 11 223 0.0 0.0 0.00 0.00 0.00 85 1018.2
20260506125443 11 223 0.0 0.0 0.00 0.00 0.00 85 1018.2
20260506124940 10 223 0.0 0.0 0.00 0.00 0.00 85 1018.1
20260506124441 10 223 0.0 0.0 0.00 0.00 0.00 85 1018.0
20260506123935 10 223 0.0 0.0 0.00 0.00 0.00 84 1018.0
20260506123436 10 223 0.0 0.0 0.00 0.00 0.00 84 1018.0
20260506122934 10 223 0.0 0.0 0.00 0.00 0.00 84 1018.0
20260506122435 10 223 0.0 0.0 0.00 0.00 0.00 84 1018.0
20260506121934 10 223 0.0 0.0 0.00 0.00 0.00 84 1017.9
20260506121435 10 223 0.0 0.0 0.00 0.00 0.00 84 1017.9
20260506120935 10 223 0.0 0.0 0.00 0.00 0.00 84 1017.9
20260506120434 10 223 0.0 0.0 0.00 0.00 0.00 84 1017.8
20260506115934 10 223 0.0 0.0 0.00 0.00 0.00 84 1017.9
20260506115435 10 223 0.0 0.0 0.00 0.00 0.00 84 1017.9
20260506114934 10 223 0.0 0.0 0.00 0.00 0.00 84 1017.8
20260506114435 10 223 0.0 0.0 0.00 0.03 0.00 84 1017.8
20260506113934 10 223 0.0 0.0 0.00 0.03 0.00 84 1017.9
20260506113435 10 223 0.0 0.0 0.00 0.03 0.00 84 1017.9
20260506112934 10 223 0.0 0.0 0.00 0.03 0.00 83 1017.8
20260506112434 10 223 0.0 0.0 0.00 0.03 0.00 83 1017.8
20260506111434 10 223 0.0 0.0 0.00 0.05 0.00 84 1017.8
20260506110935 10 223 0.0 0.0 0.00 0.08 0.00 83 1017.8
20260506110435 10 223 0.0 0.0 0.00 0.10 0.00 83 1017.8
20260506105934 10 223 0.0 0.0 0.00 0.13 0.00 83 1017.8
20260506105433 10 223 0.0 0.0 0.00 0.18 0.00 82 1017.8
20260506104934 10 223 0.0 0.0 0.00 0.28 0.00 82 1017.8
20260506104434 11 223 0.0 0.0 0.00 0.30 0.00 82 1017.8
20260506103934 11 223 0.0 0.0 0.00 0.33 0.00 82 1017.8
20260506102932 11 223 0.0 0.0 0.00 0.33 0.00 82 1017.8
20260506102432 11 223 0.0 0.0 0.00 0.36 0.00 82 1017.8
20260506102203 11 223 0.0 1.6 0.00 0.36 0.00 81 1017.8
20260506101433 11 223 0.0 1.6 0.00 0.36 0.00 81 1017.8
20260506100930 11 223 0.0 0.0 0.00 0.36 0.00 81 1017.8
20260506100428 11 223 0.0 0.0 0.00 0.36 0.00 81 1017.9
20260506095927 11 223 0.0 0.0 0.00 0.36 0.00 81 1017.8
20260506095425 11 223 0.0 0.0 0.00 0.38 0.00 81 1017.8
20260506094924 12 223 0.0 0.0 0.00 0.38 0.00 81 1017.8
20260506094423 12 223 0.0 0.0 0.00 0.38 0.00 81 1017.8
20260506093920 12 223 0.0 0.0 0.00 0.38 0.00 81 1017.8
20260506093419 12 223 0.0 1.6 0.00 0.38 0.00 81 1017.8
20260506092919 12 223 0.0 1.6 0.00 0.38 0.00 81 1017.8
20260506092417 12 223 0.0 3.2 0.00 0.38 0.00 80 1017.8
20260506091915 12 223 0.0 3.2 0.00 0.38 0.00 80 1017.9
20260506091648 12 223 0.0 3.2 0.00 0.38 0.00 80 1017.9
20260506090911 12 223 0.0 3.2 0.00 0.38 0.00 80 1017.8
20260506090411 12 223 1.6 4.8 0.00 0.38 0.00 79 1017.8
20260506085908 12 223 1.6 4.8 0.00 0.38 0.00 79 1017.9
20260506085409 12 223 1.6 6.4 0.00 0.38 0.00 79 1017.9
20260506084909 12 223 1.6 6.4 0.00 0.38 0.00 79 1017.9
20260506084409 12 223 1.6 4.8 0.00 0.38 0.00 78 1017.9
20260506083903 12 223 1.6 4.8 0.00 0.38 0.00 78 1018.0
20260506083405 12 223 1.6 4.8 0.00 0.38 0.00 78 1018.1
20260506082905 12 223 1.6 6.4 0.00 0.38 0.00 78 1018.1
20260506082403 13 223 1.6 6.4 0.00 0.38 0.00 78 1018.2
20260506081900 13 223 1.6 4.8 0.00 0.38 0.00 78 1018.2
20260506081400 13 223 1.6 4.8 0.00 0.38 0.00 77 1018.2
20260506080901 13 223 1.6 6.4 0.00 0.38 0.00 77 1018.1
20260506080402 13 223 1.6 6.4 0.00 0.38 0.00 77 1018.2
20260506072854 13 223 0.0 4.8 0.00 0.38 0.00 75 1018.2
20260506072624 13 223 0.0 4.8 0.00 0.38 0.00 74 1018.2
20260506071851 13 223 0.0 3.2 0.00 0.38 0.00 74 1018.3
20260506071350 13 223 0.0 4.8 0.00 0.38 0.00 74 1018.2
20260506070850 13 223 1.6 9.7 0.00 0.38 0.00 74 1018.1
20260506070349 13 223 3.2 9.7 0.00 0.38 0.00 73 1018.2
20260506062340 13 223 1.6 8.0 0.00 0.38 0.38 73 1017.8
20260506061841 13 223 3.2 8.0 0.00 0.38 0.38 73 1017.7
20260506061341 13 223 3.2 8.0 0.00 0.38 0.38 73 1017.5
20260506060842 13 223 3.2 6.4 0.00 0.38 0.38 73 1017.5
20260506060342 13 223 3.2 8.0 0.00 0.38 0.38 72 1017.5
20260506051340 14 222 4.8 8.0 0.00 0.38 0.38 70 1017.2
20260506050841 14 222 4.8 9.7 0.00 0.38 0.38 70 1017.2
20260506050342 14 222 4.8 9.7 0.00 0.38 0.38 69 1017.2
20260506044839 15 221 4.8 9.7 0.00 0.38 0.38 68 1016.9
20260506044338 15 221 6.4 12.9 0.00 0.38 0.38 68 1016.8
20260506043839 15 222 6.4 12.9 0.00 0.38 0.38 68 1016.6
20260506043339 15 222 6.4 11.3 0.00 0.38 0.38 67 1016.6
20260506042839 15 222 6.4 11.3 0.00 0.38 0.38 67 1016.5
20260506042340 15 222 6.4 12.9 0.00 0.38 0.38 66 1016.4
20260506041840 15 222 6.4 14.5 0.00 0.38 0.38 65 1016.3
20260506041340 15 222 6.4 14.5 0.00 0.38 0.38 64 1016.4
20260506041110 15 223 6.4 11.3 0.00 0.38 0.38 63 1016.2
20260506040340 15 223 8.0 12.9 0.00 0.38 0.38 63 1016.2
20260506040109 15 223 6.4 12.9 0.00 0.38 0.38 62 1016.2
20260506035340 15 224 4.8 12.9 0.00 0.38 0.38 61 1016.1
20260506034836 15 228 6.4 9.7 0.00 0.38 0.38 60 1016.0
20260506034332 15 228 6.4 9.7 0.00 0.38 0.38 60 1015.9
20260506034101 15 228 6.4 9.7 0.00 0.38 0.38 60 1015.7
20260506033331 16 229 4.8 9.7 0.00 0.38 0.38 59 1015.7
20260506032829 16 229 6.4 11.3 0.00 0.38 0.38 59 1015.6
20260506032328 16 229 6.4 12.9 0.00 0.38 0.38 58 1015.5
20260506031826 16 229 8.0 12.9 0.00 0.38 0.38 58 1015.4
20260506031325 16 230 8.0 12.9 0.00 0.38 0.38 57 1015.3
20260506030819 16 232 6.4 12.9 0.00 0.38 0.38 57 1015.3
20260506030319 16 233 6.4 12.9 0.00 0.38 0.38 57 1015.3
20260506025816 16 234 8.0 14.5 0.00 0.38 0.38 57 1015.2
20260506025316 16 230 8.0 14.5 0.00 0.38 0.38 56 1015.2
20260506024812 16 234 6.4 12.9 0.00 0.38 0.38 56 1015.0
20260506024304 16 240 6.4 12.9 0.00 0.38 0.38 56 1014.9
20260506023805 17 246 8.0 12.9 0.00 0.38 0.38 55 1014.9
20260506023305 17 243 8.0 16.1 0.00 0.38 0.38 55 1014.8
20260506022300 17 219 8.0 17.7 0.00 0.38 0.38 53 1014.6
20260506021801 17 220 9.7 17.7 0.00 0.38 0.38 52 1014.5
20260506021257 17 226 8.0 16.1 0.00 0.38 0.38 52 1014.5
20260506020757 17 244 8.0 17.7 0.00 0.38 0.38 52 1014.4
20260506020257 17 220 9.7 17.7 0.00 0.38 0.38 52 1014.5
20260506015754 17 226 11.3 20.9 0.00 0.38 0.38 52 1014.4
20260506015252 17 222 11.3 20.9 0.00 0.38 0.38 51 1014.3
20260506014752 18 223 11.3 19.3 0.00 0.38 0.38 50 1014.3
20260506014250 18 223 9.7 19.3 0.00 0.38 0.38 48 1014.2
20260506013750 18 219 9.7 17.7 0.00 0.38 0.38 49 1014.1
20260506013252 18 223 11.3 17.7 0.00 0.38 0.38 48 1014.1
20260506013022 18 200 9.7 17.7 0.00 0.38 0.38 48 1014.0
20260506012250 18 219 9.7 20.9 0.00 0.38 0.38 48 1014.0
20260506011751 19 221 9.7 24.1 0.00 0.38 0.38 48 1014.0
20260506011249 19 240 9.7 19.3 0.00 0.38 0.38 49 1014.0
20260506010749 18 244 11.3 19.3 0.00 0.38 0.38 49 1014.0
20260506010248 18 223 11.3 19.3 0.00 0.38 0.38 48 1014.0
20260506010021 18 221 11.3 17.7 0.00 0.38 0.38 48 1014.0
20260506005249 19 223 9.7 20.9 0.00 0.38 0.38 47 1014.0
20260506004749 19 225 11.3 20.9 0.00 0.38 0.38 47 1014.0
20260506004247 19 263 9.7 20.9 0.00 0.38 0.38 47 1014.0
20260506003747 19 256 9.7 24.1 0.00 0.38 0.38 48 1013.9
20260506003245 19 250 11.3 24.1 0.00 0.38 0.38 47 1014.0
20260506002237 19 257 12.9 27.4 0.00 0.38 0.38 47 1013.9
20260506001737 19 231 12.9 27.4 0.00 0.38 0.38 47 1013.9
20260506001508 19 211 12.9 22.5 0.00 0.38 0.38 47 1013.8
20260506001005 20 230 11.3 22.5 0.00 0.38 0.38 46 1013.8
20260506000232 20 229 11.3 20.9 0.00 0.38 0.38 48 1013.8
20260505235733 19 240 12.9 22.5 0.00 0.38 0.38 48 1013.9
20260505235229 19 228 11.3 22.5 0.00 0.38 0.38 48 1013.8
20260505234959 19 232 12.9 25.7 0.00 0.38 0.38 48 1013.8
20260505234229 19 236 14.5 25.7 0.00 0.38 0.38 49 1013.9
20260505233725 19 213 14.5 22.5 0.00 0.38 0.38 49 1013.9
20260505233224 19 220 11.3 22.5 0.00 0.38 0.38 48 1013.9
20260505232723 19 225 9.7 19.3 0.00 0.38 0.38 49 1013.9
20260505232223 18 231 11.3 20.9 0.00 0.38 0.38 51 1013.9
20260505231721 18 227 14.5 20.9 0.00 0.38 0.38 52 1013.9
20260505231221 18 234 14.5 22.5 0.00 0.38 0.38 51 1013.9
20260505230219 18 216 9.7 17.7 0.00 0.38 0.38 50 1014.0
20260505225718 18 215 9.7 17.7 0.00 0.38 0.38 51 1014.0
20260505225217 18 263 8.0 17.7 0.00 0.38 0.38 51 1014.0
20260505224717 18 252 8.0 17.7 0.00 0.38 0.38 51 1014.1
20260505224217 18 261 9.7 22.5 0.00 0.38 0.38 52 1014.1
20260505223717 18 225 9.7 22.5 0.00 0.38 0.38 51 1014.2
20260505223217 18 240 9.7 17.7 0.00 0.38 0.38 51 1014.1
20260505222714 18 248 9.7 17.7 0.00 0.38 0.38 52 1014.2
20260505222212 18 262 9.7 20.9 0.00 0.38 0.38 51 1014.3
20260505221713 18 227 11.3 20.9 0.00 0.38 0.38 51 1014.2
20260505221210 19 227 9.7 19.3 0.00 0.38 0.38 51 1014.3
20260505220709 18 246 9.7 17.7 0.00 0.38 0.38 51 1014.2
20260505220209 19 222 9.7 17.7 0.00 0.38 0.38 49 1014.3
20260505215705 19 235 9.7 19.3 0.00 0.38 0.38 50 1014.3
20260505215205 19 219 8.0 19.3 0.00 0.38 0.38 50 1014.3
20260505214703 19 223 8.0 16.1 0.00 0.38 0.38 51 1014.4
20260505214204 19 236 8.0 17.7 0.00 0.38 0.38 51 1014.4
20260505213701 19 242 8.0 17.7 0.00 0.38 0.38 51 1014.4
20260505213433 18 267 9.7 19.3 0.00 0.38 0.38 51 1014.5
20260505212655 19 223 9.7 19.3 0.00 0.38 0.38 50 1014.5
20260505212154 19 229 9.7 19.3 0.00 0.38 0.38 51 1014.5
20260505211650 19 267 8.0 19.3 0.00 0.38 0.38 51 1014.6
20260505211150 19 231 6.4 16.1 0.00 0.38 0.38 51 1014.6
20260505210920 19 236 8.0 19.3 0.00 0.38 0.38 50 1014.7
20260505210147 19 245 9.7 19.3 0.00 0.38 0.38 51 1014.7
20260505205647 18 229 9.7 17.7 0.00 0.38 0.38 53 1014.7
20260505205147 18 226 9.7 24.1 0.00 0.38 0.38 53 1014.7
20260505204646 18 222 11.3 24.1 0.00 0.38 0.38 52 1014.7
20260505204146 19 217 11.3 22.5 0.00 0.38 0.38 50 1014.7
20260505203646 19 223 11.3 22.5 0.00 0.38 0.38 51 1014.6
20260505203413 19 222 12.9 24.1 0.00 0.38 0.38 51 1014.6
20260505202643 19 257 11.3 24.1 0.00 0.38 0.38 51 1014.6
20260505202138 19 211 11.3 22.5 0.00 0.38 0.38 51 1014.6
20260505201907 19 240 11.3 22.5 0.00 0.38 0.38 51 1014.6
20260505201136 19 221 11.3 22.5 0.00 0.38 0.38 51 1014.6
20260505200634 19 219 12.9 22.5 0.00 0.38 0.38 52 1014.7
20260505200135 18 222 11.3 22.5 0.00 0.38 0.38 53 1014.7
20260505195634 18 226 11.3 22.5 0.00 0.38 0.38 53 1014.7
20260505195135 18 228 12.9 20.9 0.00 0.38 0.38 53 1014.8
20260505194634 18 223 9.7 20.9 0.00 0.38 0.38 52 1014.9
20260505194135 19 250 9.7 19.3 0.00 0.38 0.38 51 1014.9
20260505193906 19 222 9.7 19.3 0.00 0.38 0.38 50 1014.9
20260505193136 19 211 9.7 17.7 0.00 0.38 0.38 49 1014.9
20260505192635 19 222 11.3 17.7 0.00 0.38 0.38 49 1014.9
20260505192135 19 223 9.7 19.3 0.00 0.38 0.38 51 1015.0
20260505191635 18 210 9.7 19.3 0.00 0.38 0.38 52 1015.0
20260505191135 18 232 6.4 19.3 0.00 0.38 0.38 51 1015.1
20260505190632 18 221 6.4 19.3 0.00 0.38 0.38 51 1015.0
20260505190132 18 219 9.7 20.9 0.00 0.38 0.38 51 1015.1
20260505185633 18 216 9.7 20.9 0.00 0.38 0.38 51 1015.1
20260505185133 18 238 6.4 17.7 0.00 0.38 0.38 52 1015.1
20260505184128 18 210 9.7 17.7 0.00 0.38 0.38 53 1015.1
20260505183627 18 223 8.0 19.3 0.00 0.38 0.38 52 1015.2
20260505183127 18 209 6.4 19.3 0.00 0.38 0.38 52 1015.1
20260505182858 18 235 6.4 14.5 0.00 0.38 0.38 54 1015.2
20260505182125 18 234 4.8 16.1 0.00 0.38 0.38 54 1015.2
20260505181619 18 215 6.4 16.1 0.00 0.38 0.38 58 1015.2
20260505181116 17 212 8.0 14.5 0.00 0.38 0.38 58 1015.2
20260505180617 17 218 9.7 17.7 0.00 0.38 0.38 57 1015.2
20260505180112 17 221 8.0 17.7 0.00 0.38 0.38 60 1015.2
20260505175609 17 209 8.0 16.1 0.00 0.38 0.38 60 1015.1
20260505175109 17 200 8.0 16.1 0.00 0.38 0.38 60 1015.1
20260505174604 17 198 8.0 14.5 0.00 0.38 0.38 60 1015.0
20260505174332 17 216 8.0 16.1 0.00 0.38 0.38 62 1015.0
20260505173601 16 223 9.7 19.3 0.00 0.38 0.38 63 1014.9
20260505173057 16 219 9.7 19.3 0.00 0.38 0.38 63 1014.9
20260505172556 16 209 9.7 17.7 0.00 0.38 0.38 64 1014.9
20260505172057 17 209 9.7 17.7 0.00 0.38 0.38 64 1014.8
20260505171555 17 250 9.7 16.1 0.00 0.38 0.38 64 1014.8
20260505171054 16 229 8.0 14.5 0.00 0.38 0.38 66 1014.8
20260505170551 16 194 8.0 16.1 0.00 0.38 0.38 67 1014.8
20260505170052 16 209 9.7 17.7 0.00 0.38 0.38 68 1014.7
20260505165550 16 223 8.0 19.3 0.00 0.38 0.38 71 1014.8
20260505165323 15 223 6.4 19.3 0.00 0.38 0.38 71 1014.8
20260505164551 15 216 6.4 14.5 0.00 0.38 0.38 73 1014.7
20260505164049 15 211 8.0 14.5 0.00 0.38 0.38 74 1014.7
20260505163549 15 214 8.0 14.5 0.00 0.38 0.38 75 1014.7
20260505163049 15 202 8.0 14.5 0.00 0.38 0.38 78 1014.6
20260505162547 14 209 8.0 14.5 0.00 0.38 0.38 80 1014.6
20260505162044 14 204 8.0 14.5 0.00 0.38 0.38 81 1014.6
20260505161545 14 223 8.0 17.7 0.00 0.38 0.38 82 1014.6
20260505161042 13 223 8.0 17.7 0.00 0.38 0.38 83 1014.6
20260505160540 13 217 8.0 14.5 0.00 0.38 0.38 84 1014.4
20260505153036 12 214 9.7 16.1 0.00 0.38 0.38 85 1014.3
20260505152537 12 224 8.0 14.5 0.00 0.38 0.38 84 1014.3
20260505152034 12 218 9.7 14.5 0.00 0.38 0.38 83 1014.2
20260505151535 12 213 9.7 16.1 0.00 0.38 0.38 83 1014.1
20260505151034 12 210 9.7 16.1 0.00 0.38 0.38 82 1014.0
20260505150807 12 209 8.0 14.5 0.00 0.38 0.38 81 1014.0